contact:dominique.lefevre@mio.osupytheas.fr, maurice.libes@osupytheas.fr, didier.mallarino@osupytheas.fr
Project:EMSO http://www.emso-fr.org/EMSO-France
Depth: 2436.0 m
Title:EMSO Ligure Ouest : Data MII capteur MICROCAT
DateTime_Computer,Latitude,Longitude,Temperature,Conductivity,Pressure,DateTime_Instrument
DateTime_Computer,Latitude,Longitude,degC,S m-1,dbar,DateTime_Instrument
2023-02-19T00:00:45Z,42.805,6.029,13.3025,4.60080,2470.366,2023-2-19T02:03:11Z
2023-02-19T00:03:48Z,42.805,6.029,13.3029,4.60084,2470.38,2023-2-19T02:06:14Z
2023-02-19T00:06:51Z,42.805,6.029,13.3026,4.60084,2470.39,2023-2-19T02:09:17Z
2023-02-19T00:09:54Z,42.805,6.029,13.3027,4.60081,2470.404,2023-2-19T02:12:20Z
2023-02-19T00:12:57Z,42.805,6.029,13.3027,4.60085,2470.404,2023-2-19T02:15:23Z
2023-02-19T00:16:00Z,42.805,6.029,13.3026,4.60081,2470.404,2023-2-19T02:18:26Z
2023-02-19T00:19:03Z,42.805,6.029,13.3028,4.60081,2470.366,2023-2-19T02:21:29Z
2023-02-19T00:22:07Z,42.805,6.029,13.3031,4.60082,2470.39,2023-2-19T02:24:32Z
2023-02-19T00:25:10Z,42.805,6.029,13.3024,4.60081,2470.38,2023-2-19T02:27:36Z
2023-02-19T00:28:13Z,42.805,6.029,13.3028,4.60084,2470.366,2023-2-19T02:30:39Z
2023-02-19T00:31:16Z,42.805,6.029,13.3028,4.60082,2470.38,2023-2-19T02:33:42Z
2023-02-19T00:34:19Z,42.805,6.029,13.3026,4.60081,2470.404,2023-2-19T02:36:45Z
2023-02-19T00:37:22Z,42.805,6.029,13.3026,4.60082,2470.39,2023-2-19T02:39:48Z
2023-02-19T00:40:25Z,42.805,6.029,13.3026,4.60082,2470.343,2023-2-19T02:42:51Z
2023-02-19T00:43:28Z,42.805,6.029,13.3027,4.60081,2470.366,2023-2-19T02:45:54Z
2023-02-19T00:46:31Z,42.805,6.029,13.3027,4.60081,2470.413,2023-2-19T02:48:57Z
2023-02-19T00:49:34Z,42.805,6.029,13.3027,4.60091,2470.366,2023-2-19T02:52:00Z
2023-02-19T00:52:37Z,42.805,6.029,13.3026,4.60084,2470.366,2023-2-19T02:55:03Z
2023-02-19T00:55:40Z,42.805,6.029,13.3026,4.60081,2470.404,2023-2-19T02:58:06Z
2023-02-19T00:58:43Z,42.805,6.029,13.3029,4.60081,2470.39,2023-2-19T03:01:09Z
2023-02-19T01:01:47Z,42.805,6.029,13.3026,4.60083,2470.343,2023-2-19T03:04:13Z
2023-02-19T01:04:50Z,42.805,6.029,13.3030,4.60082,2470.366,2023-2-19T03:07:16Z
2023-02-19T01:07:53Z,42.805,6.029,13.3029,4.60081,2470.343,2023-2-19T03:10:19Z
2023-02-19T01:10:56Z,42.805,6.029,13.3021,4.60085,2470.366,2023-2-19T03:13:22Z
2023-02-19T01:13:59Z,42.805,6.029,13.3029,4.60082,2470.366,2023-2-19T03:16:25Z
2023-02-19T01:17:02Z,42.805,6.029,13.3029,4.60083,2470.39,2023-2-19T03:19:28Z
2023-02-19T01:20:05Z,42.805,6.029,13.3025,4.60082,2470.366,2023-2-19T03:22:31Z
2023-02-19T01:23:08Z,42.805,6.029,13.3026,4.60082,2470.38,2023-2-19T03:25:34Z
2023-02-19T01:26:11Z,42.805,6.029,13.3029,4.60082,2470.366,2023-2-19T03:28:37Z
2023-02-19T01:29:14Z,42.805,6.029,13.3026,4.60083,2470.366,2023-2-19T03:31:40Z
2023-02-19T01:32:17Z,42.805,6.029,13.3028,4.60087,2470.39,2023-2-19T03:34:43Z
2023-02-19T01:35:20Z,42.805,6.029,13.3031,4.60084,2470.39,2023-2-19T03:37:46Z
2023-02-19T01:38:24Z,42.805,6.029,13.3027,4.60085,2470.39,2023-2-19T03:40:50Z
2023-02-19T01:41:27Z,42.805,6.029,13.3027,4.60084,2470.343,2023-2-19T03:43:53Z
2023-02-19T01:44:30Z,42.805,6.029,13.3027,4.60084,2470.404,2023-2-19T03:46:56Z
2023-02-19T01:47:33Z,42.805,6.029,13.3029,4.60084,2470.39,2023-2-19T03:49:59Z
2023-02-19T01:50:36Z,42.805,6.029,13.3029,4.60083,2470.404,2023-2-19T03:53:02Z
2023-02-19T01:53:39Z,42.805,6.029,13.3028,4.60086,2470.38,2023-2-19T03:56:05Z
2023-02-19T01:56:42Z,42.805,6.029,13.3030,4.60083,2470.38,2023-2-19T03:59:08Z
2023-02-19T01:59:45Z,42.805,6.029,13.3031,4.60085,2470.366,2023-2-19T04:02:11Z
2023-02-19T02:02:48Z,42.805,6.029,13.3026,4.60087,2470.413,2023-2-19T04:05:14Z
2023-02-19T02:05:51Z,42.805,6.029,13.3029,4.60084,2470.39,2023-2-19T04:08:17Z
2023-02-19T02:08:54Z,42.805,6.029,13.3027,4.60084,2470.404,2023-2-19T04:11:20Z
2023-02-19T02:11:57Z,42.805,6.029,13.3029,4.60084,2470.39,2023-2-19T04:14:23Z
2023-02-19T02:15:01Z,42.805,6.029,13.3027,4.60084,2470.45,2023-2-19T04:17:27Z
2023-02-19T02:18:04Z,42.805,6.029,13.3024,4.60084,2470.413,2023-2-19T04:20:30Z
2023-02-19T02:21:07Z,42.805,6.029,13.3027,4.60085,2470.413,2023-2-19T04:23:33Z
2023-02-19T02:24:10Z,42.805,6.029,13.3029,4.60084,2470.427,2023-2-19T04:26:36Z
2023-02-19T02:27:13Z,42.805,6.029,13.3029,4.60091,2470.437,2023-2-19T04:29:39Z
2023-02-19T02:30:16Z,42.805,6.029,13.3034,4.60085,2470.376,2023-2-19T04:32:42Z
2023-02-19T02:33:19Z,42.805,6.029,13.3026,4.60089,2470.45,2023-2-19T04:35:45Z
2023-02-19T02:36:22Z,42.805,6.029,13.3026,4.60087,2470.437,2023-2-19T04:38:48Z
2023-02-19T02:39:25Z,42.805,6.029,13.3029,4.60086,2470.413,2023-2-19T04:41:51Z
2023-02-19T02:42:28Z,42.805,6.029,13.3028,4.60086,2470.413,2023-2-19T04:44:54Z
2023-02-19T02:45:31Z,42.805,6.029,13.3029,4.60085,2470.413,2023-2-19T04:47:57Z
2023-02-19T02:48:34Z,42.805,6.029,13.3031,4.60087,2470.46,2023-2-19T04:51:00Z
2023-02-19T02:51:37Z,42.805,6.029,13.3029,4.60090,2470.437,2023-2-19T04:54:03Z
2023-02-19T02:54:41Z,42.805,6.029,13.3030,4.60087,2470.45,2023-2-19T04:57:07Z
2023-02-19T02:57:44Z,42.805,6.029,13.3030,4.60097,2470.437,2023-2-19T05:00:10Z
2023-02-19T03:00:47Z,42.805,6.029,13.3031,4.60092,2470.483,2023-2-19T05:03:13Z
2023-02-19T03:03:50Z,42.805,6.029,13.3029,4.60096,2470.46,2023-2-19T05:06:16Z
2023-02-19T03:06:53Z,42.805,6.029,13.3033,4.60086,2470.483,2023-2-19T05:09:19Z
2023-02-19T03:09:56Z,42.805,6.029,13.3034,4.60092,2470.483,2023-2-19T05:12:22Z
2023-02-19T03:12:59Z,42.805,6.029,13.3029,4.60092,2470.497,2023-2-19T05:15:25Z
2023-02-19T03:16:02Z,42.805,6.029,13.3029,4.60085,2470.474,2023-2-19T05:18:28Z
2023-02-19T03:19:05Z,42.805,6.029,13.3030,4.60086,2470.497,2023-2-19T05:21:31Z
2023-02-19T03:22:08Z,42.805,6.029,13.3029,4.60084,2470.507,2023-2-19T05:24:34Z
2023-02-19T03:25:11Z,42.805,6.029,13.3029,4.60085,2470.497,2023-2-19T05:27:37Z
2023-02-19T03:28:14Z,42.805,6.029,13.3028,4.60088,2470.53,2023-2-19T05:30:40Z
2023-02-19T03:31:18Z,42.805,6.029,13.3030,4.60088,2470.507,2023-2-19T05:33:44Z
2023-02-19T03:34:21Z,42.805,6.029,13.3030,4.60084,2470.483,2023-2-19T05:36:47Z
2023-02-19T03:37:24Z,42.805,6.029,13.3026,4.60084,2470.544,2023-2-19T05:39:50Z
2023-02-19T03:40:27Z,42.805,6.029,13.3031,4.60086,2470.553,2023-2-19T05:42:53Z
2023-02-19T03:43:30Z,42.805,6.029,13.3033,4.60087,2470.53,2023-2-19T05:45:56Z
2023-02-19T03:46:33Z,42.805,6.029,13.3031,4.60094,2470.553,2023-2-19T05:48:59Z
2023-02-19T03:49:36Z,42.805,6.029,13.3032,4.60090,2470.553,2023-2-19T05:52:02Z
2023-02-19T03:52:39Z,42.805,6.029,13.3032,4.60089,2470.53,2023-2-19T05:55:05Z
2023-02-19T03:55:42Z,42.805,6.029,13.3034,4.60087,2470.53,2023-2-19T05:58:08Z
2023-02-19T03:58:45Z,42.805,6.029,13.3031,4.60088,2470.553,2023-2-19T06:01:11Z
2023-02-19T04:01:48Z,42.805,6.029,13.3031,4.60089,2470.53,2023-2-19T06:04:14Z
2023-02-19T04:04:51Z,42.805,6.029,13.3031,4.60091,2470.553,2023-2-19T06:07:17Z
2023-02-19T04:07:54Z,42.805,6.029,13.3032,4.60089,2470.553,2023-2-19T06:10:21Z
2023-02-19T04:10:58Z,42.805,6.029,13.3030,4.60091,2470.577,2023-2-19T06:13:24Z
2023-02-19T04:14:01Z,42.805,6.029,13.3029,4.60091,2470.577,2023-2-19T06:16:27Z
2023-02-19T04:17:04Z,42.805,6.029,13.3032,4.60086,2470.553,2023-2-19T06:19:30Z
2023-02-19T04:20:07Z,42.805,6.029,13.3032,4.60087,2470.553,2023-2-19T06:22:33Z
2023-02-19T04:23:10Z,42.805,6.029,13.3030,4.60088,2470.577,2023-2-19T06:25:36Z
2023-02-19T04:26:13Z,42.805,6.029,13.3033,4.60087,2470.567,2023-2-19T06:28:39Z
2023-02-19T04:29:16Z,42.805,6.029,13.3032,4.60092,2470.567,2023-2-19T06:31:42Z
2023-02-19T04:32:19Z,42.805,6.029,13.3029,4.60089,2470.553,2023-2-19T06:34:45Z
2023-02-19T04:35:22Z,42.805,6.029,13.3032,4.60087,2470.637,2023-2-19T06:37:48Z
2023-02-19T04:38:25Z,42.805,6.029,13.3029,4.60087,2470.6,2023-2-19T06:40:51Z
2023-02-19T04:41:28Z,42.805,6.029,13.3030,4.60090,2470.614,2023-2-19T06:43:54Z
2023-02-19T04:44:31Z,42.805,6.029,13.3028,4.60089,2470.624,2023-2-19T06:46:57Z
2023-02-19T04:47:35Z,42.805,6.029,13.3032,4.60093,2470.6,2023-2-19T06:50:01Z
2023-02-19T04:50:38Z,42.805,6.029,13.3029,4.60087,2470.637,2023-2-19T06:53:04Z
2023-02-19T04:53:41Z,42.805,6.029,13.3027,4.60087,2470.6,2023-2-19T06:56:07Z
2023-02-19T04:56:44Z,42.805,6.029,13.3029,4.60087,2470.614,2023-2-19T06:59:10Z
2023-02-19T04:59:47Z,42.805,6.029,13.3026,4.60093,2470.577,2023-2-19T07:02:13Z
2023-02-19T05:02:50Z,42.805,6.029,13.3026,4.60092,2470.6,2023-2-19T07:05:16Z
2023-02-19T05:05:53Z,42.805,6.029,13.3028,4.60088,2470.661,2023-2-19T07:08:19Z
2023-02-19T05:08:56Z,42.805,6.029,13.3026,4.60087,2470.646,2023-2-19T07:11:22Z
2023-02-19T05:11:59Z,42.805,6.029,13.3032,4.60087,2470.6,2023-2-19T07:14:25Z
2023-02-19T05:15:02Z,42.805,6.029,13.3031,4.60089,2470.661,2023-2-19T07:17:28Z
2023-02-19T05:18:05Z,42.805,6.029,13.3029,4.60091,2470.624,2023-2-19T07:20:31Z
2023-02-19T05:21:08Z,42.805,6.029,13.3031,4.60094,2470.614,2023-2-19T07:23:34Z
2023-02-19T05:24:11Z,42.805,6.029,13.3034,4.60089,2470.637,2023-2-19T07:26:38Z
2023-02-19T05:27:15Z,42.805,6.029,13.3033,4.60088,2470.67,2023-2-19T07:29:41Z
2023-02-19T05:30:18Z,42.805,6.029,13.3033,4.60087,2470.684,2023-2-19T07:32:44Z
2023-02-19T05:33:21Z,42.805,6.029,13.3030,4.60087,2470.624,2023-2-19T07:35:47Z
2023-02-19T05:36:24Z,42.805,6.029,13.3031,4.60087,2470.646,2023-2-19T07:38:50Z
2023-02-19T05:39:27Z,42.805,6.029,13.3029,4.60096,2470.646,2023-2-19T07:41:53Z
2023-02-19T05:42:30Z,42.805,6.029,13.3031,4.60094,2470.624,2023-2-19T07:44:56Z
2023-02-19T05:45:33Z,42.805,6.029,13.3030,4.60094,2470.67,2023-2-19T07:47:59Z
2023-02-19T05:48:36Z,42.805,6.029,13.3028,4.60097,2470.67,2023-2-19T07:51:02Z
2023-02-19T05:51:39Z,42.805,6.029,13.3031,4.60094,2470.614,2023-2-19T07:54:05Z
2023-02-19T05:54:42Z,42.805,6.029,13.3030,4.60091,2470.684,2023-2-19T07:57:08Z
2023-02-19T05:57:45Z,42.805,6.029,13.3031,4.60088,2470.67,2023-2-19T08:00:11Z
2023-02-19T06:00:48Z,42.805,6.029,13.3030,4.60092,2470.646,2023-2-19T08:03:14Z
2023-02-19T06:03:51Z,42.805,6.029,13.3027,4.60094,2470.684,2023-2-19T08:06:18Z
2023-02-19T06:06:55Z,42.805,6.029,13.3030,4.60094,2470.661,2023-2-19T08:09:21Z
2023-02-19T06:09:58Z,42.805,6.029,13.3031,4.60093,2470.661,2023-2-19T08:12:24Z
2023-02-19T06:13:01Z,42.805,6.029,13.3028,4.60093,2470.684,2023-2-19T08:15:27Z
2023-02-19T06:16:04Z,42.805,6.029,13.3033,4.60091,2470.646,2023-2-19T08:18:30Z
2023-02-19T06:19:07Z,42.805,6.029,13.3030,4.60092,2470.661,2023-2-19T08:21:33Z
2023-02-19T06:22:10Z,42.805,6.029,13.3033,4.60093,2470.646,2023-2-19T08:24:36Z
2023-02-19T06:25:13Z,42.805,6.029,13.3031,4.60096,2470.661,2023-2-19T08:27:39Z
2023-02-19T06:28:16Z,42.805,6.029,13.3027,4.60094,2470.646,2023-2-19T08:30:42Z
2023-02-19T06:31:19Z,42.805,6.029,13.3028,4.60092,2470.684,2023-2-19T08:33:45Z
2023-02-19T06:34:22Z,42.805,6.029,13.3029,4.60089,2470.67,2023-2-19T08:36:48Z
2023-02-19T06:37:25Z,42.805,6.029,13.3028,4.60092,2470.646,2023-2-19T08:39:51Z
2023-02-19T06:40:28Z,42.805,6.029,13.3033,4.60092,2470.67,2023-2-19T08:42:55Z
2023-02-19T06:43:31Z,42.805,6.029,13.3030,4.60090,2470.67,2023-2-19T08:45:58Z
2023-02-19T06:46:35Z,42.805,6.029,13.3032,4.60092,2470.67,2023-2-19T08:49:01Z
2023-02-19T06:49:38Z,42.805,6.029,13.3029,4.60094,2470.67,2023-2-19T08:52:04Z
2023-02-19T06:52:41Z,42.805,6.029,13.3029,4.60092,2470.684,2023-2-19T08:55:07Z
2023-02-19T06:55:44Z,42.805,6.029,13.3033,4.60096,2470.67,2023-2-19T08:58:10Z
2023-02-19T06:58:47Z,42.805,6.029,13.3031,4.60089,2470.67,2023-2-19T09:01:13Z
2023-02-19T07:01:50Z,42.805,6.029,13.3029,4.60089,2470.646,2023-2-19T09:04:16Z
2023-02-19T07:04:53Z,42.805,6.029,13.3029,4.60088,2470.693,2023-2-19T09:07:19Z
2023-02-19T07:07:56Z,42.805,6.029,13.3028,4.60088,2470.67,2023-2-19T09:10:22Z
2023-02-19T07:10:59Z,42.805,6.029,13.3029,4.60089,2470.707,2023-2-19T09:13:25Z
2023-02-19T07:14:02Z,42.805,6.029,13.3031,4.60090,2470.646,2023-2-19T09:16:28Z
2023-02-19T07:17:05Z,42.805,6.029,13.3030,4.60088,2470.67,2023-2-19T09:19:31Z
2023-02-19T07:20:08Z,42.805,6.029,13.3032,4.60089,2470.646,2023-2-19T09:22:35Z
2023-02-19T07:23:11Z,42.805,6.029,13.3027,4.60092,2470.67,2023-2-19T09:25:38Z
2023-02-19T07:26:15Z,42.805,6.029,13.3026,4.60091,2470.67,2023-2-19T09:28:41Z
2023-02-19T07:29:18Z,42.805,6.029,13.3026,4.60089,2470.693,2023-2-19T09:31:44Z
2023-02-19T07:32:21Z,42.805,6.029,13.3031,4.60092,2470.67,2023-2-19T09:34:47Z
2023-02-19T07:35:24Z,42.805,6.029,13.3024,4.60091,2470.661,2023-2-19T09:37:50Z
2023-02-19T07:38:27Z,42.805,6.029,13.3029,4.60088,2470.693,2023-2-19T09:40:53Z
2023-02-19T07:41:30Z,42.805,6.029,13.3033,4.60092,2470.693,2023-2-19T09:43:56Z
2023-02-19T07:44:33Z,42.805,6.029,13.3031,4.60088,2470.67,2023-2-19T09:46:59Z
2023-02-19T07:47:36Z,42.805,6.029,13.3034,4.60091,2470.67,2023-2-19T09:50:02Z
2023-02-19T07:50:39Z,42.805,6.029,13.3031,4.60087,2470.684,2023-2-19T09:53:05Z
2023-02-19T07:53:42Z,42.805,6.029,13.3029,4.60089,2470.646,2023-2-19T09:56:08Z
2023-02-19T07:56:45Z,42.805,6.029,13.3032,4.60087,2470.67,2023-2-19T09:59:12Z
2023-02-19T07:59:48Z,42.805,6.029,13.3031,4.60087,2470.693,2023-2-19T10:02:15Z
2023-02-19T08:02:52Z,42.805,6.029,13.3029,4.60086,2470.67,2023-2-19T10:05:18Z
2023-02-19T08:05:55Z,42.805,6.029,13.3031,4.60090,2470.661,2023-2-19T10:08:21Z
2023-02-19T08:08:58Z,42.805,6.029,13.3031,4.60088,2470.67,2023-2-19T10:11:24Z
2023-02-19T08:12:01Z,42.805,6.029,13.3029,4.60087,2470.67,2023-2-19T10:14:27Z
2023-02-19T08:15:04Z,42.805,6.029,13.3028,4.60086,2470.646,2023-2-19T10:17:30Z
2023-02-19T08:18:07Z,42.805,6.029,13.3030,4.60091,2470.684,2023-2-19T10:20:33Z
2023-02-19T08:21:10Z,42.805,6.029,13.3031,4.60087,2470.661,2023-2-19T10:23:36Z
2023-02-19T08:24:13Z,42.805,6.029,13.3029,4.60089,2470.661,2023-2-19T10:26:39Z
2023-02-19T08:27:16Z,42.805,6.029,13.3032,4.60087,2470.67,2023-2-19T10:29:42Z
2023-02-19T08:30:19Z,42.805,6.029,13.3029,4.60090,2470.67,2023-2-19T10:32:45Z
2023-02-19T08:33:22Z,42.805,6.029,13.3028,4.60090,2470.684,2023-2-19T10:35:49Z
2023-02-19T08:36:25Z,42.805,6.029,13.3032,4.60088,2470.67,2023-2-19T10:38:52Z
2023-02-19T08:39:29Z,42.805,6.029,13.3034,4.60087,2470.624,2023-2-19T10:41:55Z
2023-02-19T08:42:32Z,42.805,6.029,13.3028,4.60089,2470.637,2023-2-19T10:44:58Z
2023-02-19T08:45:35Z,42.805,6.029,13.3031,4.60087,2470.661,2023-2-19T10:48:01Z
2023-02-19T08:48:38Z,42.805,6.029,13.3029,4.60086,2470.6,2023-2-19T10:51:04Z
2023-02-19T08:51:41Z,42.805,6.029,13.3028,4.60088,2470.624,2023-2-19T10:54:07Z
2023-02-19T08:54:44Z,42.805,6.029,13.3030,4.60092,2470.661,2023-2-19T10:57:10Z
2023-02-19T08:57:47Z,42.805,6.029,13.3027,4.60089,2470.646,2023-2-19T11:00:13Z
2023-02-19T09:00:50Z,42.805,6.029,13.3030,4.60088,2470.646,2023-2-19T11:03:16Z
2023-02-19T09:03:53Z,42.805,6.029,13.3031,4.60094,2470.67,2023-2-19T11:06:19Z
2023-02-19T09:06:56Z,42.805,6.029,13.3032,4.60090,2470.624,2023-2-19T11:09:22Z
2023-02-19T09:09:59Z,42.805,6.029,13.3028,4.60088,2470.646,2023-2-19T11:12:26Z
2023-02-19T09:13:02Z,42.805,6.029,13.3028,4.60092,2470.646,2023-2-19T11:15:29Z
2023-02-19T09:16:06Z,42.805,6.029,13.3031,4.60091,2470.6,2023-2-19T11:18:32Z
2023-02-19T09:19:09Z,42.805,6.029,13.3027,4.60087,2470.646,2023-2-19T11:21:35Z
2023-02-19T09:22:12Z,42.805,6.029,13.3030,4.60087,2470.624,2023-2-19T11:24:38Z
2023-02-19T09:25:15Z,42.805,6.029,13.3028,4.60087,2470.684,2023-2-19T11:27:41Z
2023-02-19T09:28:18Z,42.805,6.029,13.3028,4.60087,2470.6,2023-2-19T11:30:44Z
2023-02-19T09:31:21Z,42.805,6.029,13.3031,4.60092,2470.624,2023-2-19T11:33:47Z
2023-02-19T09:34:24Z,42.805,6.029,13.3031,4.60091,2470.591,2023-2-19T11:36:50Z
2023-02-19T09:37:27Z,42.805,6.029,13.3029,4.60092,2470.6,2023-2-19T11:39:53Z
2023-02-19T09:40:30Z,42.805,6.029,13.3031,4.60093,2470.624,2023-2-19T11:42:56Z
2023-02-19T09:43:33Z,42.805,6.029,13.3028,4.60101,2470.6,2023-2-19T11:45:59Z
2023-02-19T09:46:36Z,42.805,6.029,13.3028,4.60093,2470.637,2023-2-19T11:49:03Z
2023-02-19T09:49:39Z,42.805,6.029,13.3032,4.60089,2470.6,2023-2-19T11:52:06Z
2023-02-19T09:52:43Z,42.805,6.029,13.3029,4.60095,2470.614,2023-2-19T11:55:09Z
2023-02-19T09:55:46Z,42.805,6.029,13.3031,4.60090,2470.6,2023-2-19T11:58:12Z
2023-02-19T09:58:49Z,42.805,6.029,13.3031,4.60089,2470.577,2023-2-19T12:01:15Z
2023-02-19T10:01:52Z,42.805,6.029,13.3030,4.60093,2470.6,2023-2-19T12:04:18Z
2023-02-19T10:04:55Z,42.805,6.029,13.3029,4.60094,2470.6,2023-2-19T12:07:21Z
2023-02-19T10:07:58Z,42.805,6.029,13.3031,4.60108,2470.577,2023-2-19T12:10:24Z
2023-02-19T10:11:01Z,42.805,6.029,13.3028,4.60104,2470.553,2023-2-19T12:13:27Z
2023-02-19T10:14:04Z,42.805,6.029,13.3034,4.60087,2470.6,2023-2-19T12:16:30Z
2023-02-19T10:17:07Z,42.805,6.029,13.3029,4.60098,2470.637,2023-2-19T12:19:33Z
2023-02-19T10:20:10Z,42.805,6.029,13.3026,4.60087,2470.553,2023-2-19T12:22:37Z
2023-02-19T10:23:13Z,42.805,6.029,13.3032,4.60091,2470.6,2023-2-19T12:25:40Z
2023-02-19T10:26:17Z,42.805,6.029,13.3031,4.60093,2470.577,2023-2-19T12:28:43Z
2023-02-19T10:29:20Z,42.805,6.029,13.3033,4.60097,2470.577,2023-2-19T12:31:46Z
2023-02-19T10:32:23Z,42.805,6.029,13.3033,4.60106,2470.553,2023-2-19T12:34:49Z
2023-02-19T10:35:26Z,42.805,6.029,13.3033,4.60092,2470.577,2023-2-19T12:37:52Z
2023-02-19T10:38:29Z,42.805,6.029,13.3032,4.60090,2470.553,2023-2-19T12:40:55Z
2023-02-19T10:41:32Z,42.805,6.029,13.3034,4.60091,2470.553,2023-2-19T12:43:58Z
2023-02-19T10:44:35Z,42.805,6.029,13.3031,4.60096,2470.53,2023-2-19T12:47:01Z
2023-02-19T10:47:38Z,42.805,6.029,13.3027,4.60107,2470.553,2023-2-19T12:50:04Z
2023-02-19T10:50:41Z,42.805,6.029,13.3028,4.60099,2470.591,2023-2-19T12:53:07Z
2023-02-19T10:53:44Z,42.805,6.029,13.3031,4.60096,2470.53,2023-2-19T12:56:10Z
2023-02-19T10:56:47Z,42.805,6.029,13.3029,4.60093,2470.567,2023-2-19T12:59:14Z
2023-02-19T10:59:50Z,42.805,6.029,13.3029,4.60099,2470.53,2023-2-19T13:02:17Z
2023-02-19T11:02:53Z,42.805,6.029,13.3032,4.60104,2470.553,2023-2-19T13:05:20Z
2023-02-19T11:05:57Z,42.805,6.029,13.3031,4.60099,2470.544,2023-2-19T13:08:23Z
2023-02-19T11:09:00Z,42.805,6.029,13.3031,4.60093,2470.577,2023-2-19T13:11:26Z
2023-02-19T11:12:03Z,42.805,6.029,13.3027,4.60096,2470.567,2023-2-19T13:14:29Z
2023-02-19T11:15:06Z,42.805,6.029,13.3029,4.60097,2470.553,2023-2-19T13:17:32Z
2023-02-19T11:18:09Z,42.805,6.029,13.3034,4.60095,2470.544,2023-2-19T13:20:35Z
2023-02-19T11:21:12Z,42.805,6.029,13.3029,4.60098,2470.52,2023-2-19T13:23:38Z
2023-02-19T11:24:15Z,42.805,6.029,13.3029,4.60096,2470.544,2023-2-19T13:26:41Z
2023-02-19T11:27:18Z,42.805,6.029,13.3030,4.60097,2470.544,2023-2-19T13:29:44Z
2023-02-19T11:30:21Z,42.805,6.029,13.3032,4.60099,2470.507,2023-2-19T13:32:47Z
2023-02-19T11:33:24Z,42.805,6.029,13.3029,4.60101,2470.52,2023-2-19T13:35:51Z
2023-02-19T11:36:27Z,42.805,6.029,13.3032,4.60102,2470.53,2023-2-19T13:38:54Z
2023-02-19T11:39:31Z,42.805,6.029,13.3030,4.60102,2470.507,2023-2-19T13:41:57Z
2023-02-19T11:42:34Z,42.805,6.029,13.3030,4.60099,2470.53,2023-2-19T13:45:00Z
2023-02-19T11:45:37Z,42.805,6.029,13.3032,4.60099,2470.507,2023-2-19T13:48:03Z
2023-02-19T11:48:40Z,42.805,6.029,13.3030,4.60097,2470.497,2023-2-19T13:51:06Z
2023-02-19T11:51:43Z,42.805,6.029,13.3031,4.60102,2470.497,2023-2-19T13:54:09Z
2023-02-19T11:54:46Z,42.805,6.029,13.3032,4.60099,2470.483,2023-2-19T13:57:12Z
2023-02-19T11:57:49Z,42.805,6.029,13.3031,4.60098,2470.47,2023-2-19T14:00:15Z
2023-02-19T12:00:52Z,42.805,6.029,13.3031,4.60099,2470.497,2023-2-19T14:03:18Z
2023-02-19T12:03:55Z,42.805,6.029,13.3028,4.60096,2470.497,2023-2-19T14:06:21Z
2023-02-19T12:06:58Z,42.805,6.029,13.3029,4.60098,2470.46,2023-2-19T14:09:24Z
2023-02-19T12:10:01Z,42.805,6.029,13.3026,4.60099,2470.483,2023-2-19T14:12:28Z
2023-02-19T12:13:04Z,42.805,6.029,13.3029,4.60102,2470.46,2023-2-19T14:15:31Z
2023-02-19T12:16:08Z,42.805,6.029,13.3031,4.60099,2470.483,2023-2-19T14:18:34Z
2023-02-19T12:19:11Z,42.805,6.029,13.3026,4.60103,2470.474,2023-2-19T14:21:37Z
2023-02-19T12:22:14Z,42.805,6.029,13.3027,4.60101,2470.46,2023-2-19T14:24:40Z
2023-02-19T12:25:17Z,42.805,6.029,13.3034,4.60098,2470.483,2023-2-19T14:27:43Z
2023-02-19T12:28:20Z,42.805,6.029,13.3032,4.60096,2470.46,2023-2-19T14:30:46Z
2023-02-19T12:31:23Z,42.805,6.029,13.3030,4.60096,2470.46,2023-2-19T14:33:49Z
2023-02-19T12:34:26Z,42.805,6.029,13.3029,4.60094,2470.474,2023-2-19T14:36:52Z
2023-02-19T12:37:29Z,42.805,6.029,13.3033,4.60096,2470.413,2023-2-19T14:39:55Z
2023-02-19T12:40:32Z,42.805,6.029,13.3031,4.60097,2470.464,2023-2-19T14:42:58Z
2023-02-19T12:43:35Z,42.805,6.029,13.3031,4.60096,2470.437,2023-2-19T14:46:02Z
2023-02-19T12:46:38Z,42.805,6.029,13.3031,4.60101,2470.474,2023-2-19T14:49:05Z
2023-02-19T12:49:41Z,42.805,6.029,13.3029,4.60099,2470.437,2023-2-19T14:52:08Z
2023-02-19T12:52:45Z,42.805,6.029,13.3029,4.60098,2470.437,2023-2-19T14:55:11Z
2023-02-19T12:55:48Z,42.805,6.029,13.3034,4.60095,2470.474,2023-2-19T14:58:14Z
2023-02-19T12:58:51Z,42.805,6.029,13.3031,4.60099,2470.45,2023-2-19T15:01:17Z
2023-02-19T13:01:54Z,42.805,6.029,13.3026,4.60100,2470.437,2023-2-19T15:04:20Z
2023-02-19T13:04:57Z,42.805,6.029,13.3031,4.60097,2470.413,2023-2-19T15:07:23Z
2023-02-19T13:08:00Z,42.805,6.029,13.3029,4.60101,2470.413,2023-2-19T15:10:26Z
2023-02-19T13:11:03Z,42.805,6.029,13.3029,4.60099,2470.427,2023-2-19T15:13:29Z
2023-02-19T13:14:06Z,42.805,6.029,13.3029,4.60096,2470.437,2023-2-19T15:16:32Z
2023-02-19T13:17:09Z,42.805,6.029,13.3029,4.60107,2470.45,2023-2-19T15:19:35Z
2023-02-19T13:20:12Z,42.805,6.029,13.3031,4.60094,2470.45,2023-2-19T15:22:39Z
2023-02-19T13:23:15Z,42.805,6.029,13.3029,4.60095,2470.437,2023-2-19T15:25:42Z
2023-02-19T13:26:18Z,42.805,6.029,13.3034,4.60097,2470.413,2023-2-19T15:28:45Z
2023-02-19T13:29:22Z,42.805,6.029,13.3029,4.60097,2470.437,2023-2-19T15:31:48Z
2023-02-19T13:32:25Z,42.805,6.029,13.3028,4.60099,2470.437,2023-2-19T15:34:51Z
2023-02-19T13:35:28Z,42.805,6.029,13.3030,4.60097,2470.437,2023-2-19T15:37:54Z
2023-02-19T13:38:31Z,42.805,6.029,13.3030,4.60098,2470.46,2023-2-19T15:40:57Z
2023-02-19T13:41:34Z,42.805,6.029,13.3031,4.60094,2470.46,2023-2-19T15:44:00Z
2023-02-19T13:44:37Z,42.805,6.029,13.3029,4.60094,2470.413,2023-2-19T15:47:03Z
2023-02-19T13:47:40Z,42.805,6.029,13.3031,4.60097,2470.427,2023-2-19T15:50:06Z
2023-02-19T13:50:43Z,42.805,6.029,13.3030,4.60097,2470.437,2023-2-19T15:53:09Z
2023-02-19T13:53:46Z,42.805,6.029,13.3031,4.60097,2470.437,2023-2-19T15:56:12Z
2023-02-19T13:56:49Z,42.805,6.029,13.3028,4.60094,2470.413,2023-2-19T15:59:16Z
2023-02-19T13:59:52Z,42.805,6.029,13.3032,4.60103,2470.413,2023-2-19T16:02:19Z
2023-02-19T14:02:55Z,42.805,6.029,13.3029,4.60099,2470.427,2023-2-19T16:05:22Z
2023-02-19T14:05:59Z,42.805,6.029,13.3031,4.60098,2470.437,2023-2-19T16:08:25Z
2023-02-19T14:09:02Z,42.805,6.029,13.3034,4.60093,2470.45,2023-2-19T16:11:28Z
2023-02-19T14:12:05Z,42.805,6.029,13.3034,4.60095,2470.413,2023-2-19T16:14:31Z
2023-02-19T14:15:08Z,42.805,6.029,13.3032,4.60098,2470.437,2023-2-19T16:17:34Z
2023-02-19T14:18:11Z,42.805,6.029,13.3031,4.60095,2470.46,2023-2-19T16:20:37Z
2023-02-19T14:21:14Z,42.805,6.029,13.3031,4.60097,2470.437,2023-2-19T16:23:40Z
2023-02-19T14:24:17Z,42.805,6.029,13.3030,4.60094,2470.46,2023-2-19T16:26:43Z
2023-02-19T14:27:20Z,42.805,6.029,13.3031,4.60097,2470.437,2023-2-19T16:29:46Z
2023-02-19T14:30:23Z,42.805,6.029,13.3031,4.60098,2470.413,2023-2-19T16:32:50Z
2023-02-19T14:33:26Z,42.805,6.029,13.3029,4.60101,2470.427,2023-2-19T16:35:53Z
2023-02-19T14:36:29Z,42.805,6.029,13.3028,4.60097,2470.413,2023-2-19T16:38:56Z
2023-02-19T14:39:32Z,42.805,6.029,13.3028,4.60102,2470.437,2023-2-19T16:41:59Z
2023-02-19T14:42:36Z,42.805,6.029,13.3034,4.60097,2470.413,2023-2-19T16:45:02Z
2023-02-19T14:45:39Z,42.805,6.029,13.3029,4.60094,2470.437,2023-2-19T16:48:05Z
2023-02-19T14:48:42Z,42.805,6.029,13.3029,4.60092,2470.474,2023-2-19T16:51:08Z
2023-02-19T14:51:45Z,42.805,6.029,13.3029,4.60091,2470.46,2023-2-19T16:54:11Z
2023-02-19T14:54:48Z,42.805,6.029,13.3032,4.60094,2470.46,2023-2-19T16:57:14Z
2023-02-19T14:57:51Z,42.805,6.029,13.3034,4.60097,2470.427,2023-2-19T17:00:17Z
2023-02-19T15:00:54Z,42.805,6.029,13.3029,4.60090,2470.45,2023-2-19T17:03:20Z
2023-02-19T15:03:57Z,42.805,6.029,13.3030,4.60092,2470.437,2023-2-19T17:06:23Z
2023-02-19T15:07:00Z,42.805,6.029,13.3031,4.60092,2470.437,2023-2-19T17:09:27Z
2023-02-19T15:10:03Z,42.805,6.029,13.3031,4.60096,2470.45,2023-2-19T17:12:30Z
2023-02-19T15:13:06Z,42.805,6.029,13.3028,4.60093,2470.46,2023-2-19T17:15:33Z